Hourly Data Report for October 28, 2014

All times are specified in Local Standard Time (LST). Add 1 hour to adjust for Daylight Saving Time where and when it is observed.

SAINT JOHN A
NEW BRUNSWICK

45°18'58.000" N
65°53'24.000" W
108.80 m
8104901
71609
YSJ

Download Data

Hourly Data (October 2014)
Hourly Data Report for October 28, 2014
Temp Definition
°C
Dew Point Temp Definition
°C
Rel Hum Definition
%
Wind Dir Definition
10's deg

Wind Spd Definition
km/h
Visibility Definition
km
Stn Press Definition
kPa
Hmdx Definition


Wind Chill Definition


Weather Definition


TIME
00:00 Legend Double Dagger 5.9 1.3 72 30 16 24.1 99.70     LegendNANA
01:00 Legend Double Dagger 5.7 1.6 75 32 12 24.1 99.78     LegendNANA
02:00 Legend Double Dagger 5.2 1.7 78 30 9 24.1 99.88     Mostly Cloudy
03:00 Legend Double Dagger 5.6 1.7 76 31 16 24.1 100.00     LegendNANA
04:00 Legend Double Dagger 4.6 1.1 78 32 17 24.1 100.06     LegendNANA
05:00 Legend Double Dagger 4.6 1.1 78 32 18 24.1 100.16     Mostly Cloudy
06:00 Legend Double Dagger 3.5 1.1 84 32 17 24.1 100.23     LegendNANA
07:00 Legend Double Dagger 4.1 1.3 82 33 19 24.1 100.27     LegendNANA
08:00 Legend Double Dagger 4.4 1.6 82 33 14 24.1 100.39     Mostly Cloudy
09:00 Legend Double Dagger 6.0 1.7 74 36 13 24.1 100.47     LegendNANA
10:00 Legend Double Dagger 6.8 1.5 69 35 17 24.1 100.53     LegendNANA
11:00 Legend Double Dagger 7.8 1.7 65 1 9 24.1 100.53     Mostly Cloudy
12:00 Legend Double Dagger 9.8 2.2 59 1 10 24.1 100.53     LegendNANA
13:00 Legend Double Dagger 9.4 1.1 56 35 7 24.1 100.53     LegendNANA
14:00 Legend Double Dagger 9.5 1.2 56 34 3 24.1 100.55     Mostly Cloudy
15:00 Legend Double Dagger 9.7 2.8 62 20 17 24.1 100.54     LegendNANA
16:00 Legend Double Dagger 8.6 2.4 65 21 10 24.1 100.55     LegendNANA
17:00 Legend Double Dagger 6.9 3.2 77 21 9 24.1 100.59     Mostly Cloudy
18:00 Legend Double Dagger 4.1 2.6 90 21 3 24.1 100.58     LegendNANA
19:00 Legend Double Dagger 1.7 1.1 96 1 3 24.1 100.66     LegendNANA
20:00 Legend Double Dagger 2.5 2.1 97 31 3 24.1 100.62     Mostly Cloudy
21:00 Legend Double Dagger 5.6 4.1 90 21 5 24.1 100.62     LegendNANA
22:00 Legend Double Dagger 7.4 4.0 79 13 13 24.1 100.58     LegendNANA
23:00 Legend Double Dagger 8.0 3.7 74 16 14 24.1 100.59     Cloudy

Notes on Data Quality.

Legend

  • E = Estimated
  • M = Missing
  • NA = Not Available
  • ‡ = Partner data that is not subject to review by the National Climate Archives
Date modified: